Weather History for PASX - October, 2013

Change the Weather History Date:

Thursday, October 17, 2013

  Actual Average Record
Temperature  
Mean Temperature 45 °F -  
Max Temperature 51 °F 41 °F 59 °F (1969)
Min Temperature 39 °F 27 °F 1 °F (1996)
Degree Days  
Heating Degree Days 20    
Moisture  
Dew Point 39 °F    
Average Humidity 77    
Maximum Humidity 93    
Minimum Humidity 58    
Precipitation  
Precipitation 0.00 in - - ()
Sea Level Pressure  
Sea Level Pressure 29.92 in    
Wind  
Wind Speed 3 mph (East)    
Max Wind Speed 18 mph    
Max Gust Speed 25 mph    
Visibility 10 miles    
Events      
Averages and records for this station are not official NWS values.
T = Trace of Precipitation, MM = Missing Value Source: NWS Daily Summary

Daily Weather History Graph

Daily Weather History Graph

Search for Another Location

Airport or City:

Trip Planner

Search our weather history database for the weather conditions in past years. The results will help you decide how hot, cold, wet, or windy it might be!

Date:

Astronomy

Oct. 17, 2013 Rise Set
Actual Time 8:50 AM AKDT 6:46 PM AKDT
Civil Twilight 8:07 AM AKDT 7:29 PM AKDT
Nautical Twilight 7:18 AM AKDT 8:18 PM AKDT
Astronomical Twilight 6:29 AM AKDT 9:07 PM AKDT
Moon 6:12 PM AKDT (10/17) 7:21 AM AKDT (10/17)
Length of Visible Light 11h 22m
Length of Day
9h 55m
Waxing Gibbous, 98% of the Moon is Illuminated
Oct 17
Waxing Gibbous
Oct 18
Full
Oct 26
Last Quarter
Nov 3
New
Nov 9
First Quarter

Hourly Weather History & Observations

Time (AKDT) Temp. Windchill Dew Point Humidity Pressure Visibility Wind Dir Wind Speed Gust Speed Precip Events Conditions
12:16 AM 41.0 °F - 39.2 °F 93% 30.10 in 10.0 mi Calm Calm - N/A   Mostly Cloudy
12:36 AM 41.0 °F - 37.4 °F 87% 30.10 in 10.0 mi Calm Calm - N/A   Mostly Cloudy
12:56 AM 39.2 °F - 37.4 °F 93% 30.09 in 10.0 mi Calm Calm - N/A   Overcast
1:16 AM 39.2 °F - 37.4 °F 93% 30.08 in 10.0 mi Calm Calm - N/A   Mostly Cloudy
1:36 AM 39.2 °F - 37.4 °F 93% 30.08 in 10.0 mi Calm Calm - N/A   Overcast
1:56 AM 39.2 °F - 37.4 °F 93% 30.07 in 10.0 mi Calm Calm - N/A   Mostly Cloudy
2:16 AM 39.2 °F - 37.4 °F 93% 30.07 in 10.0 mi Calm Calm - N/A   Overcast
2:36 AM 39.2 °F - 37.4 °F 93% 30.07 in 10.0 mi Calm Calm - N/A   Overcast
2:56 AM 41.0 °F - 37.4 °F 87% 30.07 in 10.0 mi Calm Calm - N/A   Overcast
3:16 AM 41.0 °F - 37.4 °F 87% 30.06 in 10.0 mi Calm Calm - N/A   Overcast
3:36 AM 41.0 °F - 37.4 °F 87% 30.06 in 10.0 mi Calm Calm - N/A   Overcast
3:56 AM 41.0 °F - 37.4 °F 87% 30.05 in 10.0 mi Calm Calm - N/A   Overcast
4:16 AM 41.0 °F - 37.4 °F 87% 30.04 in 10.0 mi Calm Calm - N/A   Overcast
4:36 AM 41.0 °F - 37.4 °F 87% 30.03 in 10.0 mi Calm Calm - N/A   Overcast
4:56 AM 41.0 °F - 37.4 °F 87% 30.02 in 10.0 mi Calm Calm - N/A   Overcast
5:16 AM 41.0 °F - 39.2 °F 93% 30.01 in 10.0 mi Calm Calm - N/A   Overcast
5:36 AM 42.8 °F 41.1 °F 39.2 °F 87% 30.01 in 10.0 mi WSW 3.5 mph - N/A   Overcast
5:56 AM 42.8 °F - 39.2 °F 87% 30.00 in 10.0 mi Calm Calm - N/A   Overcast
6:16 AM 42.8 °F 41.1 °F 39.2 °F 87% 29.99 in 10.0 mi West 3.5 mph - N/A   Overcast
6:36 AM 42.8 °F 38.0 °F 39.2 °F 87% 29.99 in 10.0 mi West 8.1 mph - N/A   Overcast
6:56 AM 44.6 °F 43.1 °F 41.0 °F 87% 29.99 in 10.0 mi WNW 3.5 mph - N/A   Overcast
7:16 AM 42.8 °F - 41.0 °F 93% 29.98 in 10.0 mi Calm Calm - N/A   Overcast
7:36 AM 44.6 °F 43.1 °F 41.0 °F 87% 29.98 in 10.0 mi West 3.5 mph - N/A   Overcast
7:56 AM 44.6 °F 41.4 °F 41.0 °F 87% 29.98 in 10.0 mi West 5.8 mph - N/A   Overcast
8:16 AM 44.6 °F - 41.0 °F 87% 29.98 in 10.0 mi Calm Calm - N/A   Overcast
8:36 AM 44.6 °F 41.4 °F 41.0 °F 87% 30.00 in 10.0 mi South 5.8 mph - N/A   Overcast
8:56 AM 44.6 °F - 41.0 °F 87% 29.99 in 10.0 mi Calm Calm - N/A   Overcast
9:16 AM 44.6 °F - 41.0 °F 87% 29.98 in 10.0 mi Calm Calm - N/A   Overcast
9:36 AM 42.8 °F 41.1 °F 41.0 °F 93% 29.98 in 10.0 mi ENE 3.5 mph - N/A   Scattered Clouds
9:56 AM 42.8 °F - 39.2 °F 87% 29.97 in 10.0 mi Calm Calm - N/A   Clear
10:16 AM 42.8 °F 41.1 °F 39.2 °F 87% 29.96 in 10.0 mi East 3.5 mph - N/A   Clear
10:36 AM 42.8 °F - 39.2 °F 87% 29.96 in 10.0 mi Calm Calm - N/A   Clear
10:56 AM 42.8 °F - 41.0 °F 93% 29.95 in 10.0 mi Calm Calm - N/A   Partly Cloudy
11:16 AM 42.8 °F - 39.2 °F 87% 29.96 in 10.0 mi Calm Calm - N/A   Clear
11:36 AM 44.6 °F - 41.0 °F 87% 29.96 in 10.0 mi Calm Calm - N/A   Clear
11:56 AM 44.6 °F - 42.8 °F 93% 29.96 in 10.0 mi Calm Calm - N/A   Clear
12:16 PM 46.4 °F 44.3 °F 42.8 °F 87% 29.95 in 10.0 mi WNW 4.6 mph - N/A   Clear
12:36 PM 46.4 °F - 42.8 °F 87% 29.94 in 10.0 mi Calm Calm - N/A   Clear
12:56 PM 46.4 °F 45.2 °F 42.8 °F 87% 29.94 in 10.0 mi WNW 3.5 mph - N/A   Partly Cloudy
1:16 PM 48.2 °F - 42.8 °F 82% 29.94 in 10.0 mi West 5.8 mph - N/A   Mostly Cloudy
1:36 PM 50.0 °F - 42.8 °F 76% 29.93 in 10.0 mi Calm Calm - N/A   Mostly Cloudy
1:56 PM 51.8 °F - 39.2 °F 62% 29.92 in 10.0 mi Calm Calm - N/A   Mostly Cloudy
2:16 PM 51.8 °F - 41.0 °F 67% 29.92 in 10.0 mi West 3.5 mph - N/A   Overcast
2:36 PM 51.8 °F - 41.0 °F 67% 29.91 in 10.0 mi NNW 5.8 mph - N/A   Overcast
2:56 PM 51.8 °F - 39.2 °F 62% 29.89 in 10.0 mi ENE 8.1 mph - N/A   Overcast
3:16 PM 51.8 °F - 39.2 °F 62% 29.87 in 10.0 mi East 6.9 mph - N/A   Overcast
3:36 PM 51.8 °F - 39.2 °F 62% 29.87 in 10.0 mi East 12.7 mph 16.1 mph N/A   Mostly Cloudy
3:56 PM 51.8 °F - 39.2 °F 62% 29.85 in 10.0 mi East 10.4 mph 19.6 mph N/A   Mostly Cloudy
4:16 PM 51.8 °F - 39.2 °F 62% 29.85 in 10.0 mi East 10.4 mph - N/A   Overcast
4:36 PM 51.8 °F - 37.4 °F 58% 29.85 in 10.0 mi East 6.9 mph - N/A   Overcast
4:56 PM 51.8 °F - 39.2 °F 62% 29.85 in 10.0 mi East 4.6 mph - N/A   Overcast
5:16 PM 51.8 °F - 39.2 °F 62% 29.84 in 10.0 mi East 3.5 mph - N/A   Overcast
5:36 PM 50.0 °F - 37.4 °F 62% 29.84 in 10.0 mi East 4.6 mph - N/A   Overcast
5:56 PM 50.0 °F - 37.4 °F 62% 29.83 in 10.0 mi ENE 5.8 mph - N/A   Overcast
6:16 PM 50.0 °F - 37.4 °F 62% 29.82 in 10.0 mi East 9.2 mph - N/A   Overcast
6:36 PM 48.2 °F - 37.4 °F 66% 29.82 in 10.0 mi East 8.1 mph - N/A   Overcast
6:56 PM 48.2 °F - 37.4 °F 66% 29.81 in 10.0 mi East 12.7 mph 17.3 mph N/A   Overcast
7:16 PM 48.2 °F - 37.4 °F 66% 29.81 in 10.0 mi East 11.5 mph 19.6 mph N/A   Overcast
7:36 PM 48.2 °F - 37.4 °F 66% 29.80 in 10.0 mi East 11.5 mph - N/A   Overcast
7:56 PM 48.2 °F - 37.4 °F 66% 29.80 in 10.0 mi East 11.5 mph - N/A   Overcast
8:16 PM 48.2 °F - 37.4 °F 66% 29.79 in 10.0 mi East 10.4 mph - N/A   Mostly Cloudy
8:36 PM 48.2 °F - 35.6 °F 62% 29.78 in 10.0 mi East 12.7 mph - N/A   Overcast
8:56 PM 48.2 °F - 37.4 °F 66% 29.77 in 10.0 mi East 13.8 mph 20.7 mph N/A   Overcast
9:16 PM 48.2 °F - 35.6 °F 62% 29.76 in 10.0 mi East 12.7 mph - N/A   Mostly Cloudy
9:36 PM 48.2 °F - 35.6 °F 62% 29.76 in 10.0 mi East 13.8 mph 20.7 mph N/A   Overcast
9:56 PM 48.2 °F - 35.6 °F 62% 29.76 in 10.0 mi East 12.7 mph - N/A   Overcast
10:16 PM 48.2 °F - 35.6 °F 62% 29.75 in 10.0 mi ESE 9.2 mph - N/A   Mostly Cloudy
10:36 PM 48.2 °F - 35.6 °F 62% 29.75 in 10.0 mi ESE 5.8 mph - N/A   Scattered Clouds
10:56 PM 48.2 °F - 35.6 °F 62% 29.73 in 10.0 mi East 9.2 mph 18.4 mph N/A   Overcast
11:16 PM 48.2 °F - 35.6 °F 62% 29.72 in 10.0 mi East 15.0 mph 19.6 mph N/A   Mostly Cloudy
11:36 PM 48.2 °F - 35.6 °F 62% 29.71 in 10.0 mi East 18.4 mph 25.3 mph N/A   Overcast
11:56 PM 48.2 °F - 35.6 °F 62% 29.71 in 10.0 mi East 16.1 mph 20.7 mph N/A   Scattered Clouds